Temperature
17 17 17 17 17 17 17 16 16 16 16 15 15 15 15 15 15 15 15 15 14 14 14 14 14 13 13 13 13 12 12 12 12 12 11 12 11 11 11 11 11 11 11
16 16 16 16 16 16 16 16 16 16 16 15 15 15 15 15 15 15 15 14 14 14 14 13 13 13 13 13 13 12 12 12 12 12 11 11 11 12 12 12 11 11 11
15 15 15 15 16 16 16 16 15 15 15 15 15 15 15 15 14 14 14 14 14 14 14 13 13 13 13 13 13 12 12 12 12 12 11 11 11 11 12 12 11 11 11
14 14 14 14 15 15 15 15 15 15 15 15 14 14 14 14 14 14 14 14 14 13 13 13 13 13 12 12 12 12 12 11 11 11 11 11 11 10 11 11 11 11 11
13 13 13 13 13 13 13 13 14 14 14 14 14 14 14 14 13 13 13 13 13 13 13 12 12 12 12 12 12 12 11 11 11 11 11 10 10 10 10 10 10 10 10
12 12 12 12 12 12 12 12 12 12 13 13 13 13 13 13 13 13 12 12 12 12 12 12 12 12 12 12 11 11 11 11 11 10 10 10 10 9 9 9 9 9 9
11 11 11 11 11 11 11 11 11 11 11 12 12 12 12 12 12 12 12 12 12 12 11 11 11 11 11 11 11 11 11 10 10 10 10 10 9 9 9 8 8 8 8
11 11 10 10 10 10 10 10 10 10 10 10 10 10 10 10 10 10 10 11 11 11 11 11 11 10 10 10 10 10 10 10 10 10 9 9 9 9 8 8 8 7 7
10 10 10 10 9 9 9 9 9 9 9 9 9 9 9 9 9 9 9 9 9 9 9 10 10 10 10 10 9 9 9 9 9 9 9 8 8 8 8 7 7 7 6
10 10 9 9 9 9 8 8 8 8 8 8 8 8 8 8 8 8 8 8 8 8 8 9 9 9 9 9 9 9 9 9 8 8 8 7 7 7 7 6 6 6 6
10 9 9 9 8 8 8 8 7 7 7 7 7 7 7 7 7 7 7 7 7 7 7 8 8 8 8 8 8 8 8 7 7 7 7 6 6 6 6 5 5 5 5
10 9 9 8 8 7 7 7 7 7 7 6 6 6 6 6 6 6 6 6 6 7 7 7 7 7 7 7 7 7 6 6 6 6 5 5 5 5 5 4 4 4 4
9 9 8 8 7 7 7 6 6 6 6 6 6 5 5 5 5 5 5 6 6 6 6 6 6 6 6 6 6 5 5 5 5 5 4 4 4 4 3 3 3 3 2
9 9 8 8 7 6 6 6 5 5 5 5 5 5 5 5 5 5 5 5 5 5 5 5 4 4 4 4 4 4 4 4 4 4 3 3 3 2 2 2 2 1 1
9 8 8 7 6 6 5 5 5 4 4 4 4 4 4 4 4 4 4 4 3 4 3 3 3 3 3 3 3 3 3 3 3 2 2 2 1 1 1 0 0 -0 -0
9 8 8 7 6 5 5 4 4 4 3 3 3 3 3 3 3 3 3 2 3 3 2 2 2 2 2 2 2 2 2 2 1 1 1 0 -0 -0 -1 -1 -1 -1 -1
9 8 7 7 6 5 4 4 3 3 3 3 3 3 2 2 2 2 2 2 1 2 1 1 1 2 2 1 1 1 1 1 0 0 -0 -1 -1 -1 -1 -2 -2 -2 -3
9 8 7 6 5 4 3 3 3 2 2 2 2 2 2 2 1 1 1 1 1 1 1 1 1 1 1 0 0 0 -0 -0 -1 -1 -1 -2 -2 -2 -3 -2 -3 -3 -4
9 8 7 6 5 4 3 2 2 2 1 1 1 1 1 1 1 1 0 0 0 -0 0 0 -0 -0 -0 -0 -1 -1 -1 -1 -1 -2 -2 -3 -3 -4 -4 -4 -4 -4 -4
7 7 6 5 4 3 2 2 1 1 1 1 1 1 1 0 0 0 -0 -0 -0 -0 -0 -1 -1 -1 -1 -1 -2 -2 -2 -2 -2 -3 -3 -3 -4 -5 -5 -5 -5 -5 -5
6 6 5 4 3 2 2 1 1 1 1 1 0 0 0 0 -0 -0 -0 -0 -1 -1 -1 -1 -1 -2 -2 -2 -2 -2 -3 -3 -3 -3 -4 -4 -4 -5 -5 -5 -5 -5 -6
6 5 4 3 3 2 2 1 1 1 0 0 0 0 0 -0 -0 -0 -0 -1 -1 -1 -1 -1 -2 -2 -2 -2 -3 -3 -3 -4 -4 -4 -4 -4 -5 -5 -5 -5 -6 -6 -6
5 4 4 3 2 2 2 1 1 0 0 0 0 -0 -0 -0 -0 -0 -1 -1 -1 -1 -1 -2 -2 -2 -2 -3 -3 -3 -4 -4 -4 -4 -5 -5 -5 -5 -5 -6 -6 -6 -6
4 4 3 3 3 2 2 1 1 0 0 0 -0 -0 -0 -0 -0 -1 -1 -1 -1 -1 -2 -2 -2 -2 -3 -3 -3 -3 -4 -4 -4 -5 -5 -5 -5 -6 -6 -6 -6 -6 -6
4 4 3 3 3 2 2 1 1 0 0 0 -0 -0 -0 -0 -1 -1 -1 -1 -1 -1 -2 -2 -2 -2 -3 -3 -3 -4 -4 -4 -5 -5 -5 -5 -5 -6 -6 -6 -6 -7 -7
4 3 3 3 3 2 2 1 1 0 0 0 0 -0 -0 -0 -1 -1 -1 -1 -1 -1 -2 -2 -2 -2 -3 -3 -3 -4 -4 -5 -5 -5 -5 -5 -6 -6 -6 -6 -7 -7 -7
Wind_Speed
1 3 4 5 6 6 5 4 3 1 1 2 2 3 4 4 4 5 7 8 9 10 10 7 7 7 8 9 9 7 7 7 4 3 4 4 5 7 7 7 8 11 17
4 4 5 6 6 6 5 5 4 3 2 1 2 2 3 3 4 3 4 7 8 8 8 7 7 7 8 9 9 8 6 5 5 5 3 4 4 6 8 6 8 9 11
8 5 5 6 6 7 6 4 4 3 2 1 1 1 1 1 1 2 3 4 6 7 7 7 6 6 7 8 9 9 9 7 6 6 5 4 7 4 4 6 7 7 7
8 7 6 6 6 5 5 6 6 5 5 3 2 2 1 2 2 2 3 4 4 5 6 6 5 5 5 7 8 8 8 8 7 5 6 6 4 4 4 3 4 5 7
9 8 7 6 6 5 5 6 7 7 6 6 4 3 2 1 1 2 2 3 3 4 5 5 4 5 5 6 7 7 7 7 8 7 5 6 5 5 5 6 4 3 3
8 8 6 6 6 5 6 6 7 7 7 7 7 5 4 3 3 3 3 3 3 3 5 4 3 3 4 4 5 5 6 6 7 7 6 5 5 6 6 8 6 5 2
9 8 7 6 5 6 6 6 7 6 6 7 7 6 5 4 3 3 2 3 3 3 5 4 3 3 3 3 3 3 3 4 5 5 6 6 6 3 4 6 6 5 2
8 8 7 6 5 5 5 5 6 5 6 6 6 6 5 4 3 4 3 3 2 3 4 4 4 4 4 4 3 2 2 2 2 3 3 3 3 3 3 4 4 4 3
8 8 7 6 6 5 5 5 5 5 5 6 5 6 6 5 5 5 4 4 4 4 5 5 5 5 6 5 4 3 3 2 3 3 2 2 2 2 1 1 2 4 5
8 7 7 6 5 5 4 5 5 5 5 5 5 5 6 6 6 6 6 6 6 6 6 7 7 7 7 7 6 5 5 5 5 4 5 4 4 4 4 3 2 1 2
9 8 6 6 6 5 5 5 5 5 5 5 5 6 6 6 7 7 7 6 7 7 8 7 7 8 8 8 7 8 7 8 7 7 7 7 6 5 5 4 4 3 2
8 8 7 6 6 6 5 5 5 5 5 5 6 6 6 6 7 7 7 7 7 8 8 8 8 9 9 9 9 9 9 9 9 8 8 8 6 7 6 5 5 4 4
8 7 7 7 6 6 5 5 5 5 5 6 6 6 6 7 7 7 7 8 8 8 8 8 9 9 9 9 9 9 9 10 9 8 8 7 7 7 6 6 6 5 5
9 8 7 6 6 6 6 6 5 5 5 6 6 6 6 6 6 7 7 8 7 8 8 9 8 8 8 8 8 9 10 10 10 9 8 7 6 6 6 6 6 5 5
9 9 9 7 7 6 6 6 5 5 6 6 6 6 5 6 6 7 7 7 8 8 8 8 8 7 7 8 8 9 9 9 9 9 8 8 9 9 6 5 5 5 4
10 10 9 9 8 8 7 6 6 5 6 6 6 5 6 6 6 6 7 7 8 8 8 8 8 8 7 12 13 10 8 8 8 7 7 7 8 10 11 10 8 6 4
10 10 10 9 9 8 8 7 6 6 6 6 6 5 6 6 6 6 7 7 6 6 7 7 7 7 9 13 13 13 8 7 6 6 5 5 6 8 6 8 10 9 9
10 10 9 8 8 7 7 7 7 7 6 6 6 5 6 6 6 6 6 5 5 5 5 6 6 6 8 11 11 11 7 6 5 5 4 4 5 4 5 5 6 6 5
8 8 8 8 8 9 8 8 7 7 6 6 5 5 6 6 6 5 5 4 4 4 4 4 5 5 5 9 9 9 4 4 4 4 3 3 3 6 7 5 4 4 5
7 8 8 8 9 8 8 9 8 7 7 6 6 6 5 6 6 5 4 3 3 3 4 4 3 4 4 6 8 7 3 3 3 3 4 5 4 6 6 2 2 3 4
7 8 9 8 8 8 9 9 8 7 6 6 6 6 5 6 6 5 4 4 4 3 3 3 2 2 2 4 5 5 2 2 2 2 3 4 7 7 6 4 1 4 2
7 8 8 7 7 8 9 8 8 7 7 7 6 6 6 5 5 5 4 4 4 4 3 2 1 1 2 2 3 4 3 2 1 1 2 4 7 6 6 4 5 6 4
8 7 8 8 6 7 9 9 8 8 8 7 7 6 6 5 5 5 5 4 4 3 3 2 2 1 1 3 3 3 3 3 0 2 5 6 6 5 4 5 6 4 2
8 7 9 9 8 7 8 8 9 9 8 8 7 6 6 5 5 4 4 4 4 4 4 3 3 2 2 2 2 2 2 3 3 3 4 5 5 4 4 4 4 3 2
8 8 9 10 9 8 8 8 9 9 8 8 7 6 6 6 5 4 4 5 4 5 5 4 4 4 3 4 4 2 3 3 4 2 1 2 2 3 3 2 2 2 3
8 9 9 9 9 9 9 9 10 10 10 8 7 6 6 5 5 4 2 5 5 7 7 7 6 5 6 6 5 5 6 6 6 2 1 2 2 3 3 3 3 3 3
Wind_Direction
130 80 73 81 85 69 76 81 99 105 156 166 194 208 226 231 229 227 226 226 228 227 223 226 223 217 221 223 219 218 223 227 206 212 256 265 247 239 234 223 218 219 218
125 82 67 64 71 72 67 67 65 57 69 178 199 206 221 233 238 249 247 240 239 237 232 228 230 225 227 229 224 217 221 224 196 195 217 266 281 254 237 225 225 227 220
153 123 89 73 67 57 50 56 51 51 42 34 88 52 53 0 313 273 266 260 253 249 243 238 234 232 227 233 232 225 223 232 221 206 197 215 238 255 267 238 231 226 223
142 129 111 88 72 58 47 47 47 47 38 43 72 112 161 223 255 272 276 294 289 275 265 257 248 243 236 235 236 230 227 228 233 227 227 228 210 219 266 269 249 233 225
142 132 121 106 84 64 53 46 50 44 35 42 55 75 73 274 312 336 336 325 322 317 302 284 270 258 251 246 243 236 229 226 232 226 220 234 240 230 241 266 261 259 247
137 128 116 103 83 62 54 51 55 45 36 41 44 52 50 30 18 359 348 339 337 344 347 334 314 287 274 268 261 255 246 240 239 236 223 218 221 222 228 248 250 245 244
140 133 124 108 90 70 57 53 57 45 34 41 42 39 41 44 36 5 359 357 358 353 347 353 345 326 312 302 291 277 268 260 254 249 243 238 241 234 232 245 252 244 236
145 142 138 126 108 89 72 63 62 49 36 39 38 34 33 38 30 21 22 18 8 353 346 356 3 1 1 356 348 339 315 311 286 280 269 254 255 249 234 232 236 251 244
151 145 137 129 123 106 89 82 76 60 43 40 43 38 32 35 32 29 31 24 11 12 13 15 17 15 17 17 21 30 12 13 18 7 8 358 356 0 333 286 231 231 245
150 147 143 140 131 119 103 87 82 74 55 44 43 51 35 37 39 42 38 34 27 26 27 31 32 31 30 29 38 40 33 46 38 37 46 45 35 37 33 28 10 316 244
162 159 154 146 134 122 110 97 86 77 63 56 54 52 44 44 47 47 40 38 38 35 37 38 41 41 38 36 47 49 47 55 52 49 56 53 47 48 38 38 37 27 26
165 160 155 146 139 133 122 109 98 87 77 73 67 60 52 50 51 48 42 43 45 42 43 45 49 48 46 45 52 55 55 59 57 53 57 54 54 51 43 44 42 34 26
162 158 156 156 154 148 137 124 113 104 91 84 77 67 57 55 53 51 48 50 51 50 49 52 54 52 50 52 55 61 63 62 60 56 58 53 58 56 49 50 47 38 36
172 170 170 169 163 155 146 135 124 116 105 93 85 77 68 65 63 61 58 57 57 57 55 55 57 58 58 57 59 64 65 64 60 55 53 50 55 60 57 54 47 47 47
185 183 179 174 164 154 147 139 130 122 114 104 95 90 82 77 74 70 65 61 61 61 56 57 55 55 64 67 68 66 68 66 62 53 45 47 56 60 62 64 55 52 50
196 189 180 173 169 164 156 145 137 131 122 114 107 102 94 88 82 77 73 69 65 61 59 57 55 54 62 72 75 77 68 65 63 56 44 43 44 46 47 52 52 51 57
196 188 182 177 172 168 158 153 147 134 125 121 119 115 109 101 91 87 80 74 69 68 63 57 55 54 61 70 74 75 72 65 60 55 46 43 36 38 34 37 36 31 35
189 182 173 167 161 156 151 145 142 138 134 132 129 124 118 111 103 95 91 83 76 74 72 63 55 52 59 69 74 78 69 63 56 53 53 47 14 13 50 42 27 16 10
174 168 163 157 154 155 152 145 144 143 142 144 142 136 133 127 122 115 111 105 98 89 80 72 63 54 46 66 74 79 66 56 41 30 33 37 5 9 29 46 23 5 348
146 149 147 145 152 157 150 147 151 151 155 154 148 142 139 138 137 135 130 120 116 111 100 83 66 54 29 61 73 82 76 59 35 16 6 6 3 2 9 54 16 334 314
147 147 149 155 162 158 152 154 157 165 160 148 142 141 142 145 143 139 138 135 126 118 109 97 56 29 24 40 55 71 98 84 53 20 349 329 341 348 348 358 297 295 326
153 152 153 158 161 159 156 160 170 165 151 146 146 147 150 151 145 141 143 141 137 132 130 125 92 355 352 9 23 35 50 101 111 321 294 297 324 339 345 343 320 335 6
165 161 159 160 165 168 164 169 173 162 155 151 154 155 150 146 147 151 153 147 149 154 164 170 192 256 308 332 360 11 5 8 34 279 312 327 340 354 350 339 347 8 9
175 168 166 172 179 179 176 174 168 164 159 161 164 163 158 155 154 158 162 164 171 175 182 193 205 224 252 271 278 292 314 324 319 307 322 343 354 5 353 353 358 353 316
181 178 183 187 189 183 182 176 171 166 167 170 172 172 171 167 168 172 184 185 199 193 191 200 200 202 231 248 255 251 247 257 263 278 314 347 345 345 338 332 327 328 335
186 188 192 192 190 187 188 183 177 174 172 177 180 179 175 174 174 174 189 217 209 216 215 208 205 221 237 253 267 281 289 297 301 309 284 293 296 295 300 307 311 311 310
Height
1517 1518 1520 1522 1523 1524 1526 1527 1529 1530 1531 1532 1533 1534 1535 1536 1538 1538 1539 1540 1540 1540 1540 1540 1541 1541 1541 1541 1541 1541 1541 1541 1541 1541 1539 1538 1538 1538 1537 1537 1537 1537 1537
1514 1516 1517 1519 1520 1522 1523 1524 1525 1526 1527 1528 1529 1530 1531 1532 1533 1534 1535 1535 1535 1535 1535 1535 1535 1536 1536 1536 1536 1536 1535 1535 1536 1535 1534 1532 1531 1530 1530 1530 1530 1530 1530
1510 1513 1514 1516 1517 1518 1520 1521 1522 1522 1523 1524 1525 1526 1527 1527 1528 1529 1529 1530 1530 1530 1530 1530 1530 1530 1530 1529 1530 1530 1530 1529 1529 1529 1529 1526 1522 1523 1523 1522 1522 1522 1522
1508 1510 1512 1513 1514 1515 1516 1517 1518 1519 1519 1520 1521 1521 1522 1522 1523 1524 1524 1525 1525 1525 1525 1524 1524 1524 1524 1524 1524 1524 1523 1523 1522 1522 1522 1521 1520 1519 1515 1515 1516 1515 1515
1505 1507 1509 1511 1512 1513 1513 1514 1515 1515 1516 1516 1516 1517 1517 1518 1518 1518 1518 1519 1519 1519 1518 1518 1518 1518 1518 1518 1517 1517 1517 1517 1516 1516 1515 1515 1514 1512 1511 1508 1508 1508 1508
1503 1506 1507 1509 1510 1510 1511 1511 1512 1512 1512 1512 1513 1513 1513 1513 1513 1513 1513 1513 1513 1513 1513 1512 1512 1512 1512 1511 1511 1511 1511 1510 1510 1509 1508 1508 1507 1506 1505 1503 1501 1500 1500
1501 1503 1505 1507 1508 1508 1508 1509 1509 1509 1509 1509 1509 1509 1509 1509 1509 1509 1508 1508 1508 1507 1507 1507 1506 1506 1505 1505 1505 1504 1504 1504 1503 1502 1502 1501 1500 1500 1499 1498 1495 1494 1493
1499 1502 1504 1505 1506 1506 1507 1507 1507 1507 1506 1506 1506 1506 1505 1505 1505 1504 1504 1503 1503 1502 1502 1501 1501 1500 1500 1499 1499 1498 1498 1497 1497 1496 1496 1495 1494 1494 1493 1492 1491 1488 1487
1498 1500 1502 1503 1504 1505 1505 1505 1505 1504 1504 1503 1503 1502 1502 1501 1501 1500 1500 1499 1498 1498 1497 1496 1496 1495 1494 1494 1493 1492 1492 1491 1490 1490 1489 1489 1488 1488 1487 1486 1485 1485 1481
1496 1499 1501 1502 1503 1503 1503 1503 1502 1502 1501 1500 1500 1499 1498 1498 1497 1497 1496 1495 1494 1493 1493 1492 1491 1490 1490 1489 1488 1488 1487 1486 1485 1484 1484 1483 1483 1482 1481 1481 1480 1479 1478
1495 1497 1499 1500 1500 1501 1501 1500 1500 1499 1498 1498 1497 1496 1495 1495 1494 1493 1492 1492 1491 1490 1489 1488 1487 1486 1486 1485 1484 1483 1482 1481 1481 1480 1479 1479 1478 1478 1477 1476 1475 1475 1474
1493 1495 1497 1498 1498 1498 1498 1498 1497 1496 1496 1495 1494 1494 1493 1492 1491 1490 1489 1489 1488 1487 1486 1485 1484 1484 1483 1482 1481 1480 1479 1478 1477 1477 1476 1476 1475 1475 1474 1473 1472 1471 1471
1491 1493 1494 1495 1495 1495 1495 1495 1494 1494 1493 1493 1492 1491 1491 1490 1489 1488 1487 1486 1486 1485 1484 1483 1482 1481 1481 1480 1479 1478 1477 1476 1475 1475 1475 1474 1473 1473 1472 1471 1470 1469 1468
1489 1490 1491 1492 1492 1493 1492 1492 1492 1492 1491 1491 1490 1490 1489 1488 1487 1486 1486 1485 1484 1484 1483 1482 1481 1480 1479 1479 1478 1477 1476 1475 1475 1474 1474 1473 1472 1471 1470 1469 1468 1468 1467
1486 1487 1488 1489 1489 1489 1490 1490 1489 1489 1489 1488 1488 1488 1487 1487 1486 1485 1485 1484 1484 1483 1482 1481 1481 1480 1479 1478 1477 1476 1476 1475 1474 1474 1473 1472 1471 1470 1469 1469 1468 1467 1466
1482 1483 1484 1485 1486 1486 1487 1487 1487 1487 1487 1487 1486 1486 1486 1486 1485 1485 1485 1484 1484 1483 1483 1482 1481 1480 1479 1478 1477 1476 1476 1475 1474 1474 1473 1472 1471 1470 1469 1467 1467 1466 1465
1478 1479 1480 1481 1482 1483 1484 1484 1485 1485 1485 1485 1485 1485 1485 1485 1485 1485 1485 1484 1484 1483 1483 1482 1481 1480 1479 1478 1477 1477 1476 1475 1474 1473 1472 1471 1470 1469 1468 1467 1466 1465 1464
1475 1476 1477 1478 1479 1480 1481 1482 1482 1482 1483 1483 1483 1484 1484 1484 1485 1485 1485 1485 1484 1484 1484 1483 1482 1481 1480 1479 1478 1477 1476 1475 1474 1473 1472 1471 1469 1468 1467 1466 1465 1464 1463
1471 1473 1474 1475 1476 1477 1478 1479 1480 1480 1481 1482 1482 1483 1484 1484 1484 1484 1485 1485 1485 1484 1484 1483 1482 1481 1480 1479 1478 1477 1476 1475 1474 1473 1471 1470 1469 1467 1466 1465 1463 1462 1461
1468 1470 1471 1472 1473 1475 1476 1477 1477 1478 1479 1481 1481 1482 1483 1483 1484 1484 1485 1485 1485 1485 1484 1483 1483 1482 1480 1479 1478 1477 1476 1475 1473 1472 1471 1469 1468 1467 1465 1464 1462 1461 1460
1466 1467 1468 1470 1471 1472 1473 1474 1475 1477 1478 1479 1480 1481 1482 1483 1484 1484 1485 1485 1485 1484 1484 1483 1482 1482 1480 1479 1478 1477 1475 1474 1472 1471 1470 1468 1467 1466 1464 1463 1461 1460 1459
1463 1465 1466 1467 1469 1470 1471 1472 1473 1475 1477 1478 1479 1480 1481 1482 1483 1484 1484 1484 1484 1484 1483 1483 1482 1481 1480 1479 1477 1476 1474 1473 1471 1470 1468 1467 1466 1464 1463 1462 1460 1459 1457
1461 1462 1463 1465 1466 1467 1469 1470 1472 1473 1475 1477 1478 1479 1480 1481 1482 1483 1483 1483 1483 1483 1482 1482 1481 1480 1479 1478 1476 1475 1473 1471 1470 1469 1467 1466 1464 1463 1462 1460 1459 1457 1455
1458 1459 1461 1462 1463 1465 1466 1468 1470 1471 1473 1475 1476 1477 1479 1480 1481 1481 1482 1482 1482 1481 1481 1480 1479 1478 1477 1476 1475 1473 1472 1470 1469 1467 1465 1464 1463 1461 1460 1458 1457 1455 1453
1455 1456 1457 1459 1460 1462 1463 1465 1467 1469 1471 1472 1474 1475 1477 1478 1479 1480 1480 1480 1480 1480 1480 1479 1478 1477 1475 1474 1473 1471 1470 1468 1467 1465 1464 1462 1461 1459 1458 1456 1454 1452 1450
1452 1453 1454 1455 1457 1459 1460 1462 1464 1466 1468 1470 1471 1473 1475 1476 1477 1478 1478 1478 1478 1478 1477 1476 1476 1474 1473 1472 1470 1469 1467 1466 1464 1463 1461 1459 1458 1456 1454 1453 1451 1449 1447